Location: Bletchingley
(51.2333°N, 0.1000°W)
Time: 15:28:20
(UTC+00:00)

Cosmos 2266 Rocket - Pass Details

Date: 26 January 2021
Orbit: 934 x 1008 km, 82.9° (Epoch: 05 March)

Event Time Altitude Azimuth Distance (km) Brightness Sun altitude
Rises 06:29:04 0° 350° (N) 3,619 6.7 -12.0°
Reaches altitude 10° 06:31:34 10° 352° (N) 2,664 6.1 -11.6°
Maximum altitude 06:37:39 79° 79° (E) 959 4.1 -10.7°
Drops below altitude 10° 06:43:41 10° 167° (SSE) 2,641 6.7 -9.8°
Sets 06:46:09 0° 168° (SSE) 3,584 7.4 -9.4°
